DECAYED
Showing default

FLOCK 4Y 25, 55027 (Decayed)

Orbit data source: Space-Track

FLOCK 4Y 25, 55027 was a payload satellite owned by Planet (US) in LEO that was launched on Tue, 03 Jan 2023 UTC via an FALCON 9 launch vehicle from the Air Force Eastern Test Range (AFETR). Payload-class satellites include a variety of spacecraft equipped with specific instruments for various scientific and technological missions. These include communications satellites like Starlink; space stations such as the ISS; scientific satellites like the Hubble; Earth observation satellites from companies like Planet Labs, Umbra, and HawkEye 360; GPS; miniature CubeSats for education and research; and military/defense satellites.

Not visible in the next 10 days
Identifier
55027, 2023-001U
Orbit
Decayed
Country
Flag of USUS
Related business
Manufacturer
Planet
Mission
Decayed Commercial Imaging
Bus & Motor
CUBESAT 3U, Unknown motor
Mass
5.7 kg wet, 5.7 kg dry
Launch date (UTC)
2023-01-03 (3 years ago)
Launch vehicle
FALCON 9
Launch site
Air Force Eastern Test Range (AFETR)
Object type
Payload
Rocket body
Debris
Shape & HBR
Box + 2 Pan, 1.0 m
Radar Cross Section
0.108 m², Medium (>0.1 m² and < 1m²)

Expand to show TLE details & history
Last TLE update: 10 months ago

TLE from 10 months ago
0 FLOCK 4Y 25
1 55027U 23001U   25235.84290488  .08224542  24609-5  14567-2 0  9993
2 55027  97.3266 313.1980 0012905 268.5086  91.4731 16.32489241147727
Epoch: 2025-08-23T20:13Z
TLE epoch observation values (Epoch: 2025-08-23T20:13:46.981Z)
Latitude
-0.00007°
Longitude
37.3804°
Altitude
189.331 km
Speed
7.793 km/s
True Right ascension
20h 52m 47s
True Declination
0° 00' 00"
Sunlit
Object was in full shadow at epoch
Visualization orbit readout
Latitude
Unknown
Longitude
Unknown
Altitude
Unknown
Speed
Unknown
Apparent Right ascension
Unknown
Apparent Declination
Unknown
Sunlit
N/A
Visualization observer readout
Local Sidereal Time
14:07:28
Azimuth
Unknown
Elevation
Unknown
Doppler factor
Unknown
Orbital elements
Apogee altitude
191.14 km
Perigee altitude
174.206 km
Semi-major axis
6,560.81 km
Eccentricity
0.00129
Inclination
97.3266°
RAAN
313.198°
Arg. of periapsis
268.5086°
True anomaly
91.62093°
Mean anomaly
91.4731°
Eccentric anomaly
91.54701°
Mean motion
4.0842 °/min
Orbital period
88.14 mins
BSTAR
0.0014567
Loading maneuver chart data...
Computing Atmospheric mass density...

Documentation

Showing up to 5 results
|